Pula, Croatia

1:15 PM CEST on September 25, 2017 (GMT +0200)
Pula

Weather History for LDPL - November, 2012

Change the Weather History Date:

Tuesday, November 27, 2012

  Actual Average Record
Temperature  
Mean Temperature 54 °F -  
Max Temperature 63 °F - - ()
Min Temperature 46 °F - - ()
Degree Days  
Heating Degree Days 10    
Growing Degree Days 4 (Base 50)    
Moisture  
Dew Point 52 °F    
Average Humidity 79    
Maximum Humidity 94    
Minimum Humidity 62    
Precipitation  
Precipitation 0.04 in - - ()
Sea Level Pressure  
Sea Level Pressure 29.84 in    
Wind  
Wind Speed 4 mph ()    
Max Wind Speed 13 mph    
Max Gust Speed 25 mph    
Visibility 7.6 miles    
Events Rain    
T = Trace of Precipitation, MM = Missing Value Source: Averaged Metar Reports

Daily Weather History Graph

Daily Weather History Graph

Search for Another Location

Airport or City:

Trip Planner

Search our weather history database for the weather conditions in past years. The results will help you decide how hot, cold, wet, or windy it might be!

Date:

Astronomy

Nov. 27, 2012 Rise Set
Actual Time 7:17 AM CET 4:26 PM CET
Civil Twilight 6:44 AM CET 4:59 PM CET
Nautical Twilight 6:08 AM CET 5:35 PM CET
Astronomical Twilight 5:33 AM CET 6:10 PM CET
Moon 3:47 PM CET (11/27) 6:05 AM CET (11/27)
Length of Visible Light 10h 14m
Length of Day
9h 08m
Waxing Gibbous, 99% of the Moon is Illuminated
Nov 27
Waxing Gibbous
Nov 28
Full
Dec 6
Last Quarter
Dec 13
New
Dec 20
First Quarter

Hourly Weather History & Observations

Time (CET) Temp. Dew Point Humidity Pressure Visibility Wind Dir Wind Speed Gust Speed Precip Events Conditions
12:00 AM 51.8 °F 50.0 °F 94% 29.98 in - Variable 1.2 mph - N/A   Clear
12:30 AM 55.4 °F 51.8 °F 88% 29.98 in - Variable 2.3 mph - N/A   Clear
1:00 AM 56 °F 53 °F 88% 29.97 in 12 mi SSE 2.2 mph - -   Scattered Clouds
1:00 AM 57.2 °F 53.6 °F 88% 29.95 in 6.2 mi Variable 2.3 mph - N/A   Partly Cloudy
1:30 AM 57.2 °F 53.6 °F 88% 29.95 in 6.2 mi Variable 2.3 mph - N/A   Partly Cloudy
2:00 AM 57.2 °F 51.8 °F 82% 29.95 in 6.2 mi Variable 2.3 mph - N/A   Partly Cloudy
2:30 AM 57.2 °F 51.8 °F 82% 29.92 in 6.2 mi Variable 2.3 mph - N/A   Partly Cloudy
3:00 AM 57.2 °F 50.0 °F 77% 29.92 in 6.2 mi Variable 4.6 mph - N/A   Partly Cloudy
3:30 AM 57.2 °F 50.0 °F 77% 29.92 in 6.2 mi Variable 2.3 mph - N/A   Partly Cloudy
4:00 AM 56 °F 49 °F 69% 29.93 in 12 mi South 2.2 mph - -   Scattered Clouds
4:00 AM 55.4 °F 48.2 °F 77% 29.92 in 6.2 mi Variable 2.3 mph - N/A   Partly Cloudy
4:30 AM 55.4 °F 48.2 °F 77% 29.92 in 6.2 mi Variable 2.3 mph - N/A   Partly Cloudy
5:00 AM 54 °F 48 °F 73% 29.92 in 12 mi South 2.2 mph - -   Scattered Clouds
5:00 AM 53.6 °F 48.2 °F 82% 29.92 in 6.2 mi Variable 1.2 mph - N/A   Partly Cloudy
5:30 AM 53.6 °F 48.2 °F 82% 29.89 in 6.2 mi Variable 2.3 mph - N/A   Partly Cloudy
6:00 AM 51 °F 46 °F 77% 29.91 in 12 mi Calm Calm - -   Clear
6:00 AM 51.8 °F 46.4 °F 82% 29.89 in - Calm Calm - N/A   Clear
6:30 AM 51.8 °F 46.4 °F 82% 29.89 in 6.2 mi Variable 1.2 mph - N/A   Partly Cloudy
7:00 AM 52 °F 48 °F 81% 29.91 in 16 mi SE 2.2 mph - -   Mostly Cloudy
7:00 AM 51.8 °F 48.2 °F 88% 29.89 in 6.2 mi Variable 2.3 mph - N/A   Mostly Cloudy
7:30 AM 53.6 °F 48.2 °F 82% 29.89 in 6.2 mi Variable 2.3 mph - N/A   Mostly Cloudy
8:00 AM 57.2 °F 51.8 °F 82% 29.89 in 6.2 mi Variable 2.3 mph - N/A   Mostly Cloudy
8:30 AM 57.2 °F 50.0 °F 77% 29.89 in 6.2 mi Variable 3.5 mph - N/A   Mostly Cloudy
9:00 AM 59.0 °F 50.0 °F 72% 29.92 in 6.2 mi Variable 2.3 mph - N/A   Mostly Cloudy
9:30 AM 59.0 °F 51.8 °F 77% 29.89 in 6.2 mi Variable 3.5 mph - N/A   Mostly Cloudy
10:00 AM 60 °F 52 °F 67% 29.91 in 19 mi ENE 4.5 mph - -   Scattered Clouds
10:00 AM 60.8 °F 51.8 °F 72% 29.89 in 6.2 mi Variable 5.8 mph - N/A   Partly Cloudy
10:30 AM 62.6 °F 53.6 °F 72% 29.89 in 6.2 mi Variable 6.9 mph - N/A   Partly Cloudy
11:00 AM 60.8 °F 51.8 °F 72% 29.89 in 6.2 mi SE 8.1 mph - N/A   Partly Cloudy
11:30 AM 60.8 °F 51.8 °F 72% 29.89 in 6.2 mi Variable 8.1 mph - N/A   Partly Cloudy
12:00 PM 60.8 °F 51.8 °F 72% 29.86 in 6.2 mi SSE 8.1 mph - N/A   Partly Cloudy
12:30 PM 60.8 °F 51.8 °F 72% 29.86 in 6.2 mi Variable 8.1 mph - N/A   Partly Cloudy
1:00 PM 62 °F 52 °F 62% 29.85 in 16 mi SE 11.2 mph - -   Scattered Clouds
1:00 PM 62.6 °F 51.8 °F 68% 29.83 in 6.2 mi SE 11.5 mph - N/A   Partly Cloudy
1:30 PM 62.6 °F 53.6 °F 72% 29.83 in 6.2 mi SSE 9.2 mph - N/A   Partly Cloudy
2:00 PM 60.8 °F 51.8 °F 72% 29.83 in 6.2 mi Variable 9.2 mph - N/A   Scattered Clouds
2:30 PM 60.8 °F 51.8 °F 72% 29.80 in 6.2 mi SE 9.2 mph 20.7 mph N/A   Scattered Clouds
3:00 PM 59.0 °F 51.8 °F 77% 29.80 in 6.2 mi SE 8.1 mph 19.6 mph N/A   Scattered Clouds
3:30 PM 60.8 °F 51.8 °F 72% 29.80 in 6.2 mi SE 8.1 mph - N/A   Partly Cloudy
4:00 PM 60 °F 52 °F 66% 29.80 in 16 mi SE 8.9 mph - -   Overcast
4:00 PM 60.8 °F 51.8 °F 72% 29.80 in 6.2 mi SE 9.2 mph - N/A   Partly Cloudy
4:30 PM 60.8 °F 51.8 °F 72% 29.77 in 6.2 mi SE 9.2 mph - N/A Rain Light Rain
5:00 PM 59.0 °F 53.6 °F 82% 29.77 in 6.2 mi ESE 8.1 mph - N/A Rain Light Rain
5:30 PM 60.8 °F 53.6 °F 77% 29.77 in 6.2 mi SE 10.4 mph - N/A Rain Light Rain
6:00 PM 59.0 °F 53.6 °F 82% 29.74 in 6.2 mi SE 10.4 mph - N/A Rain Light Rain
6:30 PM 59.0 °F 55.4 °F 88% 29.77 in 6.2 mi Variable 9.2 mph - N/A Rain Light Rain
7:00 PM 59 °F 55 °F 82% 29.77 in 12 mi SSE 8.9 mph - - Rain Light Rain
7:00 PM 59.0 °F 55.4 °F 88% 29.74 in 6.2 mi SSE 8.1 mph - N/A Rain Light Rain
7:30 PM 59.0 °F 55.4 °F 88% 29.74 in 6.2 mi SE 8.1 mph - N/A Rain Light Rain
8:00 PM 59.0 °F 55.4 °F 88% 29.71 in 6.2 mi SE 11.5 mph 23.0 mph N/A Rain Light Rain
8:30 PM 60.8 °F 55.4 °F 82% 29.74 in 6.2 mi SE 10.4 mph 21.9 mph N/A   Mostly Cloudy
9:00 PM 60.8 °F 55.4 °F 82% 29.71 in 6.2 mi SE 10.4 mph - N/A   Mostly Cloudy
9:30 PM 60.8 °F 55.4 °F 82% 29.71 in 6.2 mi SE 11.5 mph - N/A Rain Light Rain
10:00 PM 61 °F 56 °F 77% 29.71 in 12 mi SE 13.4 mph - - Rain Light Rain
10:00 PM 60.8 °F 55.4 °F 82% 29.71 in 6.2 mi SE 12.7 mph 24.2 mph N/A Rain Light Rain
10:30 PM 60.8 °F 55.4 °F 82% 29.68 in 6.2 mi SE 12.7 mph 25.3 mph N/A Rain Light Rain
11:00 PM 60.8 °F 55.4 °F 82% 29.68 in 6.2 mi Variable 12.7 mph 24.2 mph N/A Rain Light Rain
11:30 PM 60.8 °F 57.2 °F 88% 29.68 in 6.2 mi Variable 11.5 mph - N/A Rain Light Rain